Regional Weather Roundup
Issued by NWS Little Rock, AR

Home | Current Version | Previous Version | Text Only | Print | Product List | Glossary Off
Versions: 1 2 3 4 5 6 7 8 9 10 11 12 13 14 15 16 17 18 19 20 21 22 23 24 25 26 27 28 29 30 31 32 33 34 35 36 37 38 39 40 41 42 43 44 45 46 47 48 49 50

489
ASUS44 KLZK 081605
RWRLZK

WEATHER ROUNDUP FOR ARKANSAS
NATIONAL WEATHER SERVICE LITTLE ROCK AR
1000 AM CST THU DEC 08 2016

NOTE: "FAIR" INDICATES FEW OR NO CLOUDS BELOW 12,000 FEET WITH NO
SIGNIFICANT WEATHER AND/OR OBSTRUCTIONS TO VISIBILITY.

ARZ001-003-010-029-081700-
NORTHWEST ARKANSAS

CITY           SKY/WX    TMP DP  RH WIND       PRES   REMARKS
FAYETTEVILLE   MOSUNNY   24  10  55 N13       30.62R WCI  12
FORT SMITH     MOSUNNY   30   9  41 NW8       30.67R WCI  22
HARRISON       CLOUDY    24   9  52 NW12G20   30.58R WCI  13
BENTONVILLE    CLOUDY    23   7  50 NW8       30.63R WCI  14
ROGERS         CLOUDY    22  10  60 N8        30.62R WCI  12
SILOAM SPGS    CLOUDY    25  10  54 N16       30.63R WCI  12
HIGHFILL       CLOUDY    24  10  55 N12       30.62R WCI  13
SPRINGDALE     SUNNY     23   9  54 N12       30.63R WCI  12
$$

ARZ004-005-016-081700-
NORTH CENTRAL ARKANSAS

CITY           SKY/WX    TMP DP  RH WIND       PRES   REMARKS
BATESVILLE     CLOUDY    30  10  43 W12       30.58R WCI  21
FLIPPIN        CLOUDY    27   7  43 NW14G20   30.58R WCI  15
MTN HOME       CLOUDY    26   9  48 N6G17     30.58R WCI  19
$$

ARZ040-041-081700-
WEST CENTRAL ARKANSAS

CITY           SKY/WX    TMP DP  RH WIND       PRES   REMARKS
MENA           CLOUDY    32  19  59 NW9G16    30.59R WCI  24
MOUNT IDA      CLOUDY    34  20  56 NW5       30.55  WCI  30
$$

ARZ009-017-025-026-028-081700-
NORTHEAST ARKANSAS

CITY           SKY/WX    TMP DP  RH WIND       PRES   REMARKS
CORNING        FAIR      30  14  51 NW12      30.58R WCI  21
JONESBORO      MOSUNNY   31  14  49 NW12      30.56R WCI  22
NEWPORT        MOSUNNY   32  13  45 NW16      30.59R WCI  21
WALNUT RIDGE   CLOUDY    30  12  47 NW18G24   30.57R WCI  18
BLYTHEVILLE    MOSUNNY   37  20  50 N16       30.56R
NW BLYTHEVILLE MOSUNNY   32  18  55 NW13G21   30.55R WCI  22
$$

ARZ022-023-033-042-044-081700-
CENTRAL ARKANSAS

CITY           SKY/WX    TMP DP  RH WIND       PRES   REMARKS
LITTLE ROCK    CLOUDY    34  17  50 NW10      30.59R WCI  26
N LITTLE ROCK    N/A     33  18  55 N9G17     30.61R WCI  25
JACKSONVILLE   CLOUDY    34  16  47 N12       30.58R WCI  25
SEARCY         PTSUNNY   35  16  45 N14       30.60R WCI  26
HOT SPRINGS    MOSUNNY   37  23  56 N7G17     30.57R
RUSSELLVILLE   MOSUNNY   32  12  43 NW12      30.61R WCI  23
CLINTON        FAIR      32  10  40 VRB6      30.60R WCI  26
$$

ARZ036-081700-
EAST ARKANSAS

CITY           SKY/WX    TMP DP  RH WIND       PRES   REMARKS
WEST MEMPHIS   MOSUNNY   34  18  52 N15G24    30.56R WCI  24
$$

ARZ050-053-066-070-073-081700-
SOUTHWEST ARKANSAS

CITY           SKY/WX    TMP DP  RH WIND       PRES   REMARKS
ARKADELPHIA    FAIR      39  28  64 N9        30.59R
CAMDEN         PTSUNNY   39  25  56 N9        30.58R
TEXARKANA      PTSUNNY   38  28  67 N12       30.58R
EL DORADO      CLOUDY    39  29  67 NE10G20   30.56R
DE QUEEN       CLOUDY    36  20  52 NE10      30.59R
$$

ARZ056-057-069-081700-
SOUTHEAST ARKANSAS

CITY           SKY/WX    TMP DP  RH WIND       PRES   REMARKS
PINE BLUFF     CLOUDY    37  25  61 N12       30.57R
STUTTGART      CLOUDY    37  21  52 N17       30.57R
MONTICELLO     CLOUDY    40  28  62 N6        30.55R

$$






USA.gov is the U.S. government's official web portal to all federal, state and local government web resources and services.